SKU011 EGLC-EGPH

Flight info

Callsign SKU011
Flight time N/A
Altitude 24000
Route BPK N601 PIPIN/N0411F320 UN601 RIBEL DCT INPIP
Aircraft A320/M-SDE3FGHIRWY/LB1

Departure

Time 2026-05-03 20:42
Airport London City Airport (EGLC)

Arrival

Time N/A
Airport Edinburgh Airport (EGPH)
Time Latitude Longitude Altitude Speed Heading
2026-05-03 20:29 51.50448 0.04522 25 ft 0 kts 186°
2026-05-03 20:32 51.50455 0.04523 25 ft 2 kts 189°
2026-05-03 20:32 51.50471 0.04530 35 ft 2 kts 223°
2026-05-03 20:32 51.50478 0.04552 34 ft 2 kts 270°
2026-05-03 20:32 51.50478 0.04564 26 ft 0 kts 271°
2026-05-03 20:34 51.50478 0.04557 31 ft 3 kts 271°
2026-05-03 20:34 51.50478 0.04480 35 ft 7 kts 278°
2026-05-03 20:35 51.50491 0.04459 30 ft 0 kts 328°
2026-05-03 20:39 51.50498 0.04452 25 ft 8 kts 328°
2026-05-03 20:39 51.50546 0.04399 25 ft 7 kts 28°
2026-05-03 20:39 51.50554 0.04442 28 ft 2 kts 86°
2026-05-03 20:39 51.50554 0.04443 28 ft 0 kts 86°
2026-05-03 20:41 51.50554 0.04448 26 ft 9 kts 86°
2026-05-03 20:41 51.50537 0.05113 31 ft 107 kts 93°
2026-05-03 20:41 51.50473 0.06724 149 ft 171 kts 94°
2026-05-03 20:42 51.50407 0.08774 784 ft 192 kts 93°
2026-05-03 20:42 51.50634 0.10828 1859 ft 190 kts 59°
2026-05-03 20:42 51.51627 0.12163 2506 ft 195 kts 18°
2026-05-03 20:42 51.53005 0.12017 2945 ft 209 kts 334°
2026-05-03 20:43 51.54261 0.10779 3028 ft 211 kts 325°
2026-05-03 20:43 51.55452 0.09420 3008 ft 209 kts 324°
2026-05-03 20:43 51.56629 0.08040 3006 ft 209 kts 323°
2026-05-03 20:43 51.57802 0.06662 3010 ft 209 kts 324°
2026-05-03 20:44 51.59033 0.05294 3026 ft 239 kts 327°
2026-05-03 20:44 51.60522 0.03770 3010 ft 257 kts 328°
2026-05-03 20:44 51.62024 0.02268 3006 ft 259 kts 328°
2026-05-03 20:44 51.63583 0.00718 3002 ft 260 kts 328°
2026-05-03 20:45 51.65107 -0.00794 2996 ft 260 kts 328°
2026-05-03 20:45 51.66646 -0.02327 3023 ft 260 kts 328°